Location: Los Gatos B&B
(42.6926°N, 77.0646°W)
Time: 00:05:42
(UTC-05:00)

SL-16 R/B - Visible Passes

Search period start: 23 February 2017 00:00
Search period end: 05 March 2017 00:00
Orbit: 841 x 848 km, 71.0° (Epoch: 22 February)

Date Brightness Start Highest point End Pass type
(mag) Time Alt. Az. Time Alt. Az. Time Alt. Az.
23 Feb 4.0 20:38:39 10° N 20:40:45 21° N 20:40:45 21° N visible
24 Feb 3.7 20:24:37 10° N 20:27:19 24° NNE 20:27:19 24° NNE visible
24 Feb 5.0 22:08:40 10° NW 22:09:14 13° NW 22:09:14 13° NW visible
25 Feb 3.5 20:10:34 10° N 20:13:58 27° NNE 20:13:58 27° NNE visible
25 Feb 4.7 21:54:34 10° NW 21:55:51 17° NW 21:55:51 17° NW visible
26 Feb 3.2 19:56:33 10° N 20:00:38 30° NE 20:00:38 30° NE visible
26 Feb 4.4 21:40:29 10° NW 21:42:32 21° NW 21:42:32 21° NW visible
27 Feb 3.1 19:42:30 10° N 19:47:22 30° NE 19:47:22 30° NE visible
27 Feb 4.0 21:26:24 10° NW 21:29:17 28° NW 21:29:17 28° NW visible
28 Feb 3.0 19:28:28 10° N 19:33:25 30° NE 19:34:11 29° ENE visible
28 Feb 3.6 21:12:19 10° NW 21:16:07 36° WNW 21:16:07 36° WNW visible
01 Mar 3.1 19:14:25 10° N 19:19:20 29° NE 19:21:05 24° E visible
01 Mar 3.1 20:58:14 10° NW 21:03:02 44° W 21:03:02 44° W visible
02 Mar 3.2 19:00:23 10° N 19:05:15 28° NE 19:08:07 19° E visible
02 Mar 2.9 20:44:09 10° NW 20:49:35 47° WSW 20:50:03 46° WSW visible
03 Mar 3.2 18:46:21 10° N 18:51:10 27° NE 18:55:16 13° ESE visible
03 Mar 2.9 20:30:04 10° NW 20:35:32 49° WSW 20:37:12 38° SSW visible
04 Mar 3.2 18:32:19 10° N 18:37:05 26° NE 18:41:49 10° ESE visible
04 Mar 2.9 20:15:59 10° NW 20:21:28 51° WSW 20:24:32 25° S visible
